MSG 4 DEB (COOLER COVER), 40989

Orbit data source: Space-Track

MSG 4 DEB (COOLER COVER), 40989 is space debris in GEO originally from a launch on Wed, 15 Jul 2015 UTC launched from the French Guiana (FRGUI). Debris objects in space refer to the collection of defunct objects orbiting the Earth. Examples of debris include non-operational satellites, rocket bodies, and fragments generated from explosions, collisions, or faulty payload assembly.

Not visible in the next 10 days
Identifier
40989, 2015-034E
Orbit
GEO
Country
Flag of DEDE / EUME
Related business
Manufacturer
SENER
Mission
Spacecraft
Bus & Motor
MSG COVER, Unknown motor
Mass
~0 kg wet, ~4 kg dry
Launch date (UTC)
2015-07-15 (11 years ago)
Launch vehicle
Unknown
Launch site
French Guiana (FRGUI)
Object type
Payload
Rocket body
Debris
Shape & HBR
Box, 0.6 m
Radar Cross Section
0.435 m², Medium (>0.1 m² and < 1m²)

Expand to show TLE details & history
Last TLE update: 1 week ago

TLE from 1 week ago
0 MSG 4 DEB (COOLER COVER)
1 40989U 15034E   26166.94120036 -.00000134  00000-0  00000+0 0  9997
2 40989   7.1093  78.9258 0035864 306.6851 270.1501  1.01541741 40325
Epoch: 2026-06-15T22:35Z
TLE epoch observation values (Epoch: 2026-06-15T22:35:19.711Z)
Latitude
-4.24505°
Longitude
52.10271°
Altitude
35,435.213 km
Speed
3.088 km/s
True Right ascension
19h 40m 37s
True Declination
-4° 14' 27"
Sunlit
Object was in daylight at epoch
Visualization orbit readout
Latitude
Unknown
Longitude
Unknown
Altitude
Unknown
Speed
Unknown
Apparent Right ascension
Unknown
Apparent Declination
Unknown
Sunlit
N/A
Visualization observer readout
Local Sidereal Time
21:40:45
Azimuth
Unknown
Elevation
Unknown
Doppler factor
Unknown
Orbital elements
Apogee altitude
35,585.311 km
Perigee altitude
35,285.391 km
Semi-major axis
41,813.488 km
Eccentricity
0.00359
Inclination
7.1093°
RAAN
78.9258°
Arg. of periapsis
306.6851°
True anomaly
269.73913°
Mean anomaly
270.1501°
Eccentric anomaly
269.94461°
Mean motion
0.25384 °/min
Orbital period
1,418.19 mins
BSTAR
0
Loading maneuver chart data...
Computing Atmospheric mass density...
Loading historical data...
Loading historical data...
Loading historical data...
Loading historical data...
Loading historical data...
Loading historical data...
Loading historical data...

Documentation

Showing up to 5 results
|